Total_Precipitation_Accumulation
1.64 1.79 1.73 1.68 1.69 1.73 1.81 1.86 1.88 1.74 1.48 1.08 0.94 0.89 0.92 0.99 1.25 1.12 0.98 0.94 0.84 0.78 0.71 0.63 0.59 0.59 0.73 0.92 1.13 1.33 1.47 1.58 1.62 1.58 1.51 1.48 1.54 1.61
1.45 1.58 1.70 1.74 1.76 1.76 1.82 1.82 1.78 1.74 1.65 1.26 1.02 0.85 0.92 0.88 1.06 0.89 0.99 1.15 0.93 0.77 0.69 0.63 0.59 0.57 0.57 0.64 0.68 0.72 0.76 0.82 0.94 1.09 1.13 1.12 1.14 1.21
1.27 1.30 1.48 1.61 1.72 1.77 1.78 1.76 1.80 1.75 1.61 1.41 1.12 0.94 1.02 1.01 1.02 0.90 0.92 0.98 0.89 0.83 0.73 0.64 0.57 0.57 0.54 0.55 0.55 0.50 0.51 0.53 0.58 0.73 0.84 0.84 0.83 0.85
1.13 1.21 1.29 1.32 1.42 1.55 1.66 1.64 1.72 1.76 1.71 1.61 1.34 1.10 1.07 1.11 1.21 1.21 1.15 1.09 1.06 1.12 1.05 0.87 0.72 0.64 0.59 0.55 0.51 0.47 0.43 0.44 0.45 0.50 0.60 0.73 0.84 0.83
0.98 1.03 1.07 1.16 1.27 1.31 1.39 1.48 1.56 1.60 1.69 1.64 1.54 1.41 1.24 1.17 1.20 1.17 1.26 1.42 1.36 1.34 1.38 1.20 0.97 0.82 0.72 0.65 0.60 0.54 0.50 0.49 0.47 0.45 0.48 0.55 0.65 0.74
0.87 0.94 0.99 1.03 1.12 1.20 1.22 1.34 1.46 1.55 1.57 1.54 1.48 1.42 1.36 1.33 1.32 1.27 1.32 1.46 1.52 1.43 1.40 1.32 1.22 1.10 0.94 0.82 0.70 0.65 0.62 0.58 0.55 0.51 0.50 0.52 0.58 0.63
0.80 0.83 0.86 0.82 0.86 0.93 0.94 1.11 1.27 1.45 1.51 1.54 1.46 1.35 1.30 1.32 1.31 1.32 1.36 1.51 1.56 1.59 1.58 1.45 1.33 1.16 1.03 0.93 0.80 0.73 0.70 0.65 0.60 0.58 0.58 0.56 0.59 0.66
0.70 0.74 0.80 0.82 0.78 0.74 0.74 0.81 0.94 1.07 1.25 1.38 1.41 1.34 1.27 1.25 1.33 1.44 1.45 1.52 1.62 1.56 1.48 1.55 1.47 1.36 1.18 0.98 0.96 0.92 0.82 0.74 0.67 0.63 0.61 0.59 0.58 0.63
0.54 0.67 0.78 0.84 0.87 0.89 0.78 0.76 0.78 0.82 0.92 1.09 1.22 1.23 1.21 1.23 1.29 1.38 1.45 1.49 1.41 1.46 1.42 1.49 1.48 1.35 1.20 1.13 1.17 1.03 0.94 0.86 0.81 0.73 0.68 0.65 0.66 0.69
0.47 0.58 0.73 0.84 0.87 0.89 0.85 0.91 0.89 0.79 0.76 0.84 1.03 1.10 1.11 1.23 1.36 1.46 1.58 1.57 1.52 1.50 1.42 1.43 1.38 1.25 1.15 1.14 1.21 1.08 0.97 0.90 0.85 0.83 0.81 0.78 0.78 0.81
0.44 0.52 0.68 0.76 0.86 0.87 0.84 0.95 0.95 0.78 0.71 0.81 0.85 0.92 1.00 1.13 1.31 1.45 1.54 1.55 1.53 1.51 1.36 1.23 1.18 1.23 1.23 1.16 1.13 1.12 1.00 0.90 0.82 0.78 0.77 0.76 0.78 0.88
0.44 0.49 0.69 0.75 0.77 0.74 0.76 0.97 1.06 0.93 0.70 0.68 0.75 0.88 0.96 1.09 1.32 1.46 1.68 1.68 1.49 1.46 1.35 1.21 1.20 1.28 1.40 1.31 1.13 1.03 0.96 0.96 0.92 0.87 0.84 0.83 0.92 0.91
0.32 0.38 0.41 0.52 0.56 0.60 0.71 0.82 0.92 0.83 0.75 0.83 0.92 0.95 1.03 1.09 1.18 1.30 1.52 1.70 1.63 1.42 1.31 1.31 1.29 1.27 1.26 1.21 1.15 1.04 0.93 0.92 0.89 0.88 0.91 0.94 1.00 0.98
0.23 0.28 0.32 0.42 0.46 0.52 0.59 0.64 0.67 0.73 0.78 0.92 0.95 0.87 0.91 0.98 0.99 1.08 1.25 1.39 1.30 1.24 1.15 1.10 1.11 1.06 1.02 0.95 0.95 1.00 1.00 0.95 0.91 0.90 0.88 1.02 1.09 1.10
0.17 0.24 0.28 0.35 0.36 0.41 0.49 0.51 0.59 0.80 0.93 0.88 0.85 0.82 0.80 0.84 0.83 0.95 1.14 1.29 1.24 1.08 0.99 0.93 0.93 0.94 0.92 0.87 0.82 0.81 0.86 0.90 0.85 0.85 0.88 0.89 0.89 0.97
0.20 0.23 0.26 0.34 0.36 0.39 0.45 0.53 0.65 0.81 0.95 0.81 0.69 0.70 0.71 0.79 0.86 0.85 0.94 1.04 1.18 1.17 1.06 0.99 0.94 0.95 0.93 0.84 0.81 0.77 0.71 0.74 0.78 0.85 0.88 0.88 0.86 0.84
0.24 0.32 0.42 0.52 0.53 0.53 0.59 0.63 0.66 0.66 0.72 0.67 0.66 0.71 0.74 0.76 0.82 0.84 0.86 0.87 0.90 0.95 0.99 0.97 0.94 0.96 0.98 0.93 0.87 0.78 0.74 0.70 0.73 0.84 0.95 0.98 0.93 0.90
0.34 0.38 0.49 0.63 0.68 0.70 0.71 0.71 0.72 0.68 0.69 0.65 0.67 0.68 0.68 0.69 0.71 0.79 0.86 0.93 0.87 0.79 0.76 0.75 0.78 0.87 0.94 0.98 0.88 0.78 0.78 0.78 0.78 0.81 0.84 0.87 0.86 0.85
0.35 0.39 0.57 0.63 0.61 0.63 0.70 0.73 0.67 0.58 0.58 0.58 0.54 0.54 0.54 0.53 0.56 0.62 0.70 0.78 0.79 0.75 0.72 0.70 0.72 0.77 0.81 0.78 0.74 0.66 0.69 0.76 0.84 0.83 0.79 0.75 0.72 0.71
0.41 0.55 0.69 0.71 0.65 0.59 0.56 0.53 0.47 0.43 0.44 0.44 0.45 0.45 0.48 0.49 0.51 0.52 0.55 0.58 0.63 0.66 0.72 0.74 0.76 0.77 0.79 0.76 0.70 0.63 0.60 0.66 0.73 0.79 0.78 0.78 0.80 0.83
0.39 0.48 0.57 0.64 0.58 0.45 0.38 0.36 0.34 0.36 0.37 0.39 0.42 0.46 0.46 0.49 0.50 0.52 0.53 0.55 0.58 0.61 0.64 0.66 0.70 0.83 0.87 0.89 0.83 0.67 0.63 0.69 0.76 0.77 0.77 0.80 0.81 0.79
0.26 0.30 0.33 0.35 0.33 0.30 0.30 0.30 0.31 0.34 0.36 0.39 0.42 0.45 0.49 0.54 0.54 0.52 0.53 0.54 0.55 0.56 0.56 0.58 0.67 0.79 0.86 0.89 0.82 0.70 0.62 0.63 0.74 0.83 0.83 0.81 0.78 0.73
0.25 0.27 0.28 0.29 0.30 0.30 0.30 0.31 0.32 0.33 0.35 0.38 0.42 0.46 0.48 0.51 0.54 0.55 0.54 0.55 0.55 0.55 0.57 0.59 0.63 0.73 0.81 0.83 0.80 0.73 0.67 0.64 0.65 0.67 0.68 0.74 0.72 0.67